Flag for Germany Weather past 2 weeks in Steinfurt, North Rhine-Westphalia, Germany

Now
59 °F

Cool.


Feels Like: 58 °F
Forecast: 50 / 58 °F
Wind: 6 mph from South

Location: Rheine-Bentlage

Current Time: Apr 25, 2015 at 5:40:39 PM

Latest Report: Apr 25, 2015 at 4:20 PM


Visibility: N/A

Pressure: 29.71 "Hg

Humidity: 68%

Dew point: 48 °F

Location of SteinfurtLocation

Historic Weather in Steinfurt — Graph

°F

Steinfurt temperature yesterday

Maximum temperature yesterday: 68 °F (at 5:20 PM)
Minimum temperature yesterday: 36 °F (at 5:20 AM)
Average temperature yesterday: 54 °F

Past Weeks' High & Low Weather Summary

 TemperatureHumidityPressure
High73 °F (Apr 15, 4:20 PM)100% (Apr 18, 7:20 AM)30.48 "Hg (Apr 18, 7:20 AM)
Low32 °F (Apr 18, 7:20 AM)30% (Apr 21, 2:20 PM)29.71 "Hg (Apr 25, 4:20 PM)
Average51 °F67%30.18 "Hg
* Reported Apr 10 4:20 PM — Apr 25 4:20 PM, Steinfurt, Weather by CustomWeather, © 2015

Note: Actual official high and low records may vary slightly from our data, if they occured in-between our weather recording intervals... More about our weather records

Advertising

Steinfurt weather history for previous 24 hours

 ConditionsComfort  
Time TempWeatherWind HumidityBarometerVisibility
4:20 PM
Sat, Apr 25
59 °FCool.6 mph68%29.71 "HgN/A
3:20 PM57 °FCool.6 mph77%29.74 "HgN/A
2:20 PM57 °FCool.6 mph77%29.74 "HgN/A
1:20 PM55 °FCool.8 mph82%29.74 "HgN/A
12:20 PM54 °FCool.7 mph88%29.74 "HgN/A
11:20 AM52 °FCool.6 mph88%29.77 "HgN/A
10:20 AM52 °FCool.8 mph82%29.77 "HgN/A
9:20 AM54 °FCool.3 mph77%29.74 "HgN/A
8:20 AM54 °FCool.7 mph77%29.74 "HgN/A
7:20 AM54 °FCool.6 mph77%29.77 "HgN/A
6:20 AM52 °FCool.2 mph82%29.74 "HgN/A
5:20 AM54 °FCool.5 mph72%29.74 "HgN/A
4:20 AM54 °FCool.5 mph72%29.77 "HgN/A
3:20 AM52 °FCool.5 mph72%29.77 "HgN/A
2:20 AM50 °FCool.1 mph76%29.77 "HgN/A
1:20 AM52 °FCool.No wind72%29.77 "HgN/A
12:20 AM54 °FCool.No wind67%29.77 "HgN/A
11:20 PM
Fri, Apr 24
54 °FCool.2 mph67%29.80 "HgN/A
10:20 PM57 °FRefreshingly cool.3 mph59%29.80 "HgN/A
9:20 PM59 °FRefreshingly cool.1 mph51%29.80 "HgN/A
8:20 PM64 °FMild.3 mph40%29.80 "HgN/A
7:20 PM66 °FMild.3 mph35%29.80 "HgN/A
6:20 PM68 °FMild.9 mph35%29.80 "HgN/A
5:20 PM68 °FMild.9 mph33%29.83 "HgN/A
Weather by CustomWeather, © 2015

See weather overviewHow to use our weather pages